[Iaude] MPEC H44: 2024 HU [a=1.79,e=0.68,i=13.1,H=23.6]

mpec at cfa.harvard.edu mpec at cfa.harvard.edu
Sat Apr 20 01:47:41 EDT 2024


M.P.E.C. 2024-H44                                Issued 2024 April 20, 05:46 UT

     The Minor Planet Electronic Circulars contain information on unusual
         minor planets, routine data on comets and natural satellites,
         and occasional editorial announcements.  They are published
    on behalf of Division F of the International Astronomical Union by the
          Minor Planet Center, Smithsonian Astrophysical Observatory,
                          Cambridge, MA 02138, U.S.A.
			  
             Prepared using the Tamkin Foundation Computer Network

                              MPC at CFA.HARVARD.EDU
            URL https://www.minorplanetcenter.net/    ISSN 1523-6714

                                    2024 HU                                     


Observations:
     K24H00U* C2024 04 18.57406115 48 48.764-05 47 21.55         20.67wXEH044F52
     K24H00U  C2024 04 18.58661315 48 40.455-05 46 22.03         21.04wXEH044F52
     K24H00U  C2024 04 18.59910515 48 32.150-05 45 22.49         20.36wXEH044F52
     K24H00U  C2024 04 18.61159615 48 23.932-05 44 23.25         20.35wXEH044F52
     K24H00U KC2024 04 19.05205215 43 55.39 -05 11 08.2          20.7 GXEH044I93
     K24H00U KC2024 04 19.06150115 43 49.54 -05 10 26.0          20.5 GXEH044I93
     K24H00U KC2024 04 19.07094015 43 43.70 -05 09 43.1          20.0 GXEH044I93
     K24H00U |C2024 04 19.30017015 41 28.330-04 51 45.30         20.8 GVEH044807
     K24H00U |C2024 04 19.30465015 41 25.620-04 51 26.30         20.7 GVEH044807
     K24H00U |C2024 04 19.30898015 41 23.030-04 51 07.70         20.7 GVEH044807
     K24H00U  C2024 04 19.47955615 39 47.238-04 39 58.44         20.30GVEH044F52
     K24H00U  C2024 04 19.48038115 39 46.755-04 39 54.77         20.56GVEH044F52
     K24H00U |C2024 04 20.15724015 33 42.910-03 53 45.60         20.1 GVEH044807
     K24H00U |C2024 04 20.16392015 33 39.340-03 53 20.30         20.5 GVEH044807
     K24H00U |C2024 04 20.17046015 33 35.870-03 52 55.10         20.4 GVEH044807

Observer details:
807 Cerro Tololo Observatory, La Serena.  Observers T. Linder, R. Holmes.
    0.61-m f/6.8 Ritchey-Chretien + CCD.
F52 Pan-STARRS 2, Haleakala.  Observers J. Herman, T. Lowe, P. Minguez, A.
    Schultz, I. Smith.  Measurers K. Chambers, T. de Boer, J. Fairlamb, H.
    Gao, M. Huber, C.-C. Lin, E. Magnier, Y. Ramanjooloo, R. Wainscoat, R.
    Weryk.  1.8-m Ritchey-Chretien + CCD.
I93 St Pardon de Conques.  Observer F. Losse.  0.40-m f/3.7 reflector + CCD.

Orbital elements:
2024 HU                                                  Earth MOID = 0.0050 AU
Epoch 2024 Mar. 31.0 TT = JDT 2460400.5                 MPC                     
M  16.36612              (2000.0)            P               Q                  
n   0.41203013     Peri.  265.36771     -0.33363314     -0.93793048             
a   1.7886145      Node   204.78020     +0.92946680     -0.31050193             
e   0.6792375      Incl.   13.06351     +0.15741788     -0.15451524             
P   2.39           H   23.63          G   0.15           U   8                  
Residuals in seconds of arc
240418 F52  0.2+  0.0     240419 I93  0.0   0.5-    240419 F52  0.2+  0.0
240418 F52  0.4+  0.2-    240419 I93  0.3-  0.5+    240419 F52  0.3+  0.2+
240418 F52  0.3-  0.0     240419 807  0.0   0.2+    240420 807  0.0   0.0
240418 F52  0.2-  0.0     240419 807  0.3-  0.1-    240420 807  0.1-  0.2-
240419 I93  0.3+  0.7-    240419 807  0.1-  0.1-    240420 807  0.2+  0.1+

Ephemeris:
2024 HU                  a,e,i = 1.79, 0.68, 13                  q = 0.5737
Date    TT    R. A. (2000) Decl.     Delta      r    Elong.  Phase     V
2024 03 21    00 30 32.5 -17 06 07   0.2301  0.7816    18.7   155.9    29.6
...
2024 04 05    21 39 52.1 -27 36 35   0.08826 0.9568    58.2   117.3    22.9
...
2024 04 13    17 21 06.0 -16 21 19   0.08699 1.0518   122.4    53.6    20.4
...
2024 04 19    15 44 26.5 -05 14 13   0.1331  1.1222   150.7    26.0    20.7
2024 04 20    15 35 03.1 -04 04 25   0.1425  1.1339   153.4    23.4    20.8
2024 04 21    15 26 48.7 -03 03 22   0.1523  1.1454   155.8    21.1    20.9
...
2024 04 27    14 53 20.1 +00 55 23   0.2156  1.2142   162.9    14.1    21.5
...
2024 05 05    14 30 40.0 +03 11 06   0.3092  1.3035   160.1    15.3    22.5
...
2024 05 20    14 14 06.9 +03 52 30   0.5072  1.4631   146.9    22.2    24.1

A. U. Tomatic                (C) Copyright 2024 MPC           M.P.E.C. 2024-H44





More information about the Iaude mailing list